User: anonymous   Login
Location: Innerarity Island Observatory
(30.3139°N, 87.4867°W)
Time: 04:22:16
(UTC-06:00)
Language:

JAS-2 - Orbit

View from above orbital plane
View from above orbital plane
View from above satellite
View from above satellite

Ground track
Ground track

The orbit data is extracted from the following two-line orbital elements,

1 24278U 96046B   15063.53456291  .00000013  00000-0  50542-4 0  9992
2 24278 098.5286 046.5378 0350177 342.3688 163.0740 13.53045745915871
Epoch (UTC): 04 March 2015 12:49:46
Eccentricity: 0.0350177
inclination: 98.5286°
perigee height: 800 km
apogee height: 1321 km
right ascension of ascending node: 46.5378°
argument of perigee: 342.3688°
revolutions per day: 13.53045745
mean anomaly at epoch: 163.0740°
orbit number at epoch: 91587

The dashed part of the orbit path shows where the satellite is in the earth's shadow,  

DLR